Total_Precipitation_Accumulation
0.23 0.24 0.26 0.24 0.25 0.25 0.28 0.38 0.51 0.35 0.09 0.03 0.05 0.06 0.09 0.12 0.17 0.17 0.17 0.20 0.26 0.32 0.35 0.36 0.40 0.47 0.76 1.40 2.31 2.92 2.74 2.04 1.29 0.89 0.87 1.07 1.44 1.80
0.28 0.29 0.31 0.31 0.30 0.30 0.32 0.32 0.38 0.44 0.26 0.05 0.06 0.07 0.09 0.12 0.17 0.18 0.18 0.20 0.21 0.26 0.30 0.32 0.34 0.41 0.54 0.81 1.36 2.22 2.76 2.65 2.00 1.35 1.07 1.11 1.29 1.69
0.30 0.34 0.35 0.34 0.35 0.33 0.34 0.34 0.33 0.37 0.35 0.09 0.04 0.07 0.13 0.16 0.17 0.17 0.19 0.18 0.16 0.19 0.25 0.30 0.32 0.37 0.47 0.62 0.85 1.39 2.19 2.65 2.58 2.04 1.57 1.33 1.23 1.32
0.43 0.43 0.44 0.44 0.46 0.44 0.44 0.40 0.35 0.32 0.35 0.22 0.07 0.06 0.13 0.20 0.26 0.25 0.21 0.18 0.15 0.16 0.20 0.25 0.29 0.33 0.41 0.51 0.64 0.90 1.44 2.13 2.55 2.46 2.02 1.58 1.32 1.28
0.71 0.70 0.68 0.65 0.65 0.63 0.61 0.53 0.42 0.33 0.31 0.27 0.15 0.09 0.13 0.23 0.33 0.34 0.29 0.21 0.16 0.17 0.19 0.22 0.26 0.29 0.33 0.40 0.51 0.64 0.88 1.27 1.84 2.34 2.46 2.12 1.67 1.43
0.82 0.85 0.90 0.92 0.92 0.88 0.84 0.68 0.52 0.41 0.34 0.31 0.23 0.16 0.14 0.22 0.38 0.43 0.39 0.31 0.21 0.17 0.19 0.20 0.24 0.28 0.28 0.28 0.31 0.43 0.66 1.01 1.39 1.89 2.38 2.48 2.13 1.78
0.57 0.61 0.72 0.87 0.99 1.04 1.05 0.90 0.73 0.62 0.49 0.40 0.32 0.25 0.21 0.26 0.41 0.48 0.51 0.47 0.40 0.31 0.23 0.19 0.20 0.22 0.23 0.26 0.31 0.40 0.54 0.72 0.96 1.33 1.84 2.30 2.35 2.10
0.36 0.37 0.41 0.56 0.67 0.76 0.87 0.89 0.92 0.92 0.80 0.61 0.47 0.37 0.31 0.32 0.40 0.54 0.57 0.60 0.58 0.48 0.39 0.32 0.28 0.26 0.24 0.23 0.27 0.32 0.42 0.56 0.73 0.95 1.25 1.70 2.08 2.17
0.19 0.20 0.21 0.30 0.42 0.46 0.53 0.60 0.70 0.82 0.91 0.85 0.76 0.61 0.46 0.39 0.43 0.50 0.57 0.63 0.63 0.61 0.59 0.56 0.51 0.40 0.34 0.33 0.35 0.33 0.35 0.43 0.55 0.70 0.87 1.16 1.56 1.91
0.15 0.13 0.11 0.16 0.31 0.40 0.49 0.47 0.48 0.63 0.83 0.93 0.99 0.89 0.67 0.53 0.55 0.60 0.66 0.65 0.67 0.78 0.81 0.77 0.70 0.57 0.53 0.49 0.46 0.38 0.34 0.35 0.43 0.54 0.66 0.83 1.10 1.47
0.12 0.13 0.10 0.10 0.25 0.33 0.29 0.25 0.28 0.42 0.55 0.71 0.78 0.77 0.69 0.65 0.66 0.69 0.69 0.73 0.85 0.99 1.03 0.98 0.93 0.74 0.70 0.71 0.64 0.50 0.39 0.35 0.37 0.44 0.53 0.64 0.79 1.11
0.07 0.09 0.14 0.17 0.23 0.22 0.15 0.15 0.23 0.31 0.31 0.34 0.39 0.43 0.46 0.46 0.56 0.69 0.78 0.81 0.91 1.13 1.18 1.06 1.11 0.98 0.95 0.92 0.75 0.53 0.42 0.42 0.43 0.44 0.47 0.52 0.62 0.79
0.06 0.08 0.12 0.17 0.15 0.12 0.09 0.12 0.26 0.21 0.14 0.19 0.25 0.32 0.39 0.45 0.51 0.61 0.74 0.84 0.91 1.06 1.15 1.06 1.18 1.06 0.95 1.00 0.90 0.69 0.46 0.39 0.41 0.50 0.54 0.56 0.59 0.57
0.08 0.06 0.08 0.09 0.06 0.04 0.04 0.08 0.09 0.05 0.06 0.10 0.16 0.22 0.33 0.45 0.54 0.62 0.69 0.78 0.88 0.98 1.00 0.97 1.09 1.07 0.86 0.78 0.84 0.85 0.65 0.49 0.40 0.42 0.47 0.66 0.72 0.68
0.19 0.13 0.04 0.02 0.01 0.01 0.02 0.03 0.02 0.03 0.06 0.08 0.14 0.20 0.29 0.40 0.45 0.51 0.57 0.63 0.70 0.83 0.93 0.93 1.01 1.11 0.95 0.75 0.70 0.76 0.79 0.74 0.54 0.45 0.45 0.48 0.54 0.59
0.14 0.09 0.02 0.00 0.00 0.00 0.01 0.01 0.01 0.03 0.07 0.09 0.13 0.16 0.19 0.26 0.34 0.45 0.53 0.58 0.62 0.75 0.93 1.02 1.10 1.21 1.11 0.88 0.73 0.70 0.68 0.78 0.71 0.50 0.45 0.47 0.49 0.43
0.09 0.02 0.00 0.00 0.00 0.00 0.00 0.00 0.01 0.01 0.03 0.06 0.09 0.12 0.15 0.21 0.30 0.39 0.51 0.58 0.64 0.73 0.92 1.14 1.21 1.29 1.32 1.20 0.99 0.82 0.68 0.63 0.64 0.54 0.45 0.52 0.61 0.55
0.05 0.01 0.00 0.00 0.01 0.01 0.01 0.01 0.01 0.01 0.03 0.05 0.07 0.11 0.16 0.22 0.28 0.34 0.45 0.57 0.65 0.71 0.83 1.06 1.20 1.30 1.46 1.55 1.39 1.02 0.79 0.67 0.67 0.61 0.48 0.47 0.66 0.73
0.02 0.01 0.01 0.01 0.02 0.02 0.02 0.02 0.02 0.01 0.02 0.04 0.07 0.09 0.13 0.18 0.24 0.31 0.40 0.50 0.60 0.69 0.78 0.92 1.11 1.25 1.37 1.57 1.74 1.40 1.00 0.79 0.76 0.78 0.66 0.48 0.50 0.65
0.01 0.02 0.02 0.02 0.02 0.03 0.03 0.03 0.02 0.01 0.01 0.03 0.04 0.07 0.11 0.15 0.20 0.27 0.36 0.47 0.56 0.65 0.73 0.84 1.06 1.23 1.25 1.23 1.36 1.54 1.48 1.06 0.82 0.83 0.82 0.69 0.63 0.78
0.02 0.02 0.03 0.03 0.03 0.04 0.03 0.03 0.02 0.02 0.02 0.02 0.03 0.05 0.08 0.12 0.17 0.23 0.30 0.39 0.47 0.56 0.65 0.77 0.98 1.16 1.23 1.10 1.08 1.30 1.56 1.56 1.11 0.80 0.71 0.70 0.74 0.82
0.03 0.04 0.03 0.03 0.04 0.04 0.04 0.03 0.02 0.02 0.01 0.02 0.03 0.03 0.05 0.09 0.13 0.18 0.24 0.31 0.40 0.49 0.59 0.70 0.84 1.09 1.27 1.27 1.23 1.25 1.45 1.66 1.67 1.31 0.92 0.64 0.49 0.52
0.06 0.06 0.05 0.04 0.04 0.04 0.04 0.04 0.03 0.02 0.02 0.02 0.02 0.02 0.04 0.06 0.09 0.13 0.18 0.25 0.32 0.40 0.51 0.64 0.79 1.00 1.28 1.40 1.34 1.26 1.28 1.42 1.53 1.46 1.40 1.11 0.66 0.38